Location: Newark
(45.8667°N, 9.7333°E)
Time: 12:19:27
(UTC+00:00)

Vanguard 3 - Pass Details

Date: 28 January 2020
Orbit: 508 x 3263 km, 33.3° (Epoch: 19 February)

Event Time Altitude Azimuth Distance (km) Brightness Sun altitude
Rises 12:13:00 0° 170° (S) 6,168 12.8 25.3°
Reaches altitude 10° 12:22:09 10° 141° (SE) 5,778 12.1 25.0°
Maximum altitude 12:26:34 11° 127° (SE) 5,865 11.9 24.8°
Drops below altitude 10° 12:31:12 10° 112° (ESE) 6,125 11.8 24.6°
Sets 12:41:54 0° 86° (E) 7,207 11.8 24.1°
